[[{"header":{"parameterUnit":"m.s-1","parameterCategory":1,"la1":30.2991,"la2":30.254,"lo1":-89.0895,"lo2":-89.0444,"dy":0.0017,"dx":0.0017,"nx":28,"ny":28,"refTime":"2024-08-10T09:00:00:Z","depth":0,"parameterNumber":2,"parameterNumberName":"U-component_of_WINDS"},"data":[0,0,0,0,0,0,0,0,0,0,0,0,0,0,0,0,0,0,0,0,0,0,0,0,0,0,0,0,0,0,0,0,0,0,0,0,0,0,0,0,0,0,0,0,0,0,0,0,0,0,0,0,0,0,0,0,0,0,0.9799,0.9799,0,0.9798,0.9798,0.9798,0.97,0.9697,0.9695,0.9692,0.9694,0.9696,0.9699,0,0,0,0,0,0,0,0,0,0,0,0,0,0.9717,0.9719,0.9799,0.9799,0.9799,0.9798,0.9798,0.9798,0.97,0.9697,0.9694,0.9691,0.9693,0.9696,0.9699,0,0,0,0,0,0,0,0,0,0,0,0,0,0.9738,0.972,0.9799,0.975,0.9745,0.9798,0.9798,0.9798,0.9701,0.9697,0.9693,0.969,0.9692,0.9696,0.9699,0.98,0,0,0.9711,0.9712,0,0,0,0,0,0,0,0,0.9737,0.9741,0.9757,0.9753,0.9748,0.9745,0.977,0.9799,0.9702,0.9718,0.9692,0.9688,0.9714,0.9716,0.9724,0.98,0.98,0.9711,0.9713,0.9715,0.9716,0,0,0,0,0,0,0,0.9736,0.9741,0.9798,0.9757,0.9752,0.9729,0.9727,0.9775,0.9738,0.9716,0.9709,0.971,0.9711,0.9721,0.9724,0.98,0.9711,0.9714,0.9716,0.9718,0.9961,0.9965,0,0,0,0,0,0,0.9741,0.974,0.9798,0.9798,0.9733,0.9733,0.9732,0.975,0.9737,0.9731,0.9714,0.9706,0.9717,0.9719,0.9723,0.9843,0.9715,0.9718,0.972,0.9957,0.9962,0.9967,0,0,0,0,0,0,0.9739,0.9747,0.9798,0.9768,0.9772,0.9739,0.976,0.9752,0.9762,0.9735,0.9728,0.973,0.9714,0.9718,0.9782,0.9841,0.972,0.9723,0.9952,0.9959,0.9964,1.0081,0,0,0,0,0,0,0.9738,0.9747,0.9784,0.9769,0.9774,0.9857,0.9764,0.9755,0.9768,0.9758,0.9749,0.9744,0.9711,0.9777,0.9786,0.9844,0.9726,0.9947,0.9955,0.9962,1.0072,1.0091,1.0107,0,0,0,0,0,0.9735,0.9817,0.9786,0.9794,0.982,0.986,0.9863,0.9823,0.9773,0.9811,0.9794,0.9744,0.9833,0.9785,0.9793,0.9854,0.9943,0.9953,0.9962,1.0064,1.0087,1.0106,0,0,0,0,0,0,0.9839,0.9814,0.978,0.9859,0.9863,0.9844,0.989,0.9849,0.9867,0.9857,0.9806,0.9805,0.9878,0.9872,0.9818,0.9952,0.9879,0.9891,0.9954,0.9975,0.9992,0.9994,0.9729,0,0,0,0,0,0.9872,0.9906,0.9882,0.9954,0.9957,0.9924,0.994,0.9909,0.9911,0.9912,0.9899,0.9904,0.9933,0.9953,0.9978,1.007,1.0068,1.0116,1.0133,1.0148,1.0159,1.021,1.0232,0.9998,0.9998,0.9998,0,0,0.9939,0.9929,0.9953,0.9975,0.9974,1.0012,0.9926,0.9969,0.9997,0.9918,0.9979,0.997,0.9972,1.0051,1.0085,1.0048,1.0223,1.016,1.0172,1.0175,1.0223,1.0245,1.0265,1.0005,1.0004,1.0003,0,0,1.0081,1.0076,1.0137,1.0138,1.0138,1.0115,1.013,1.0118,1.0109,1.0169,1.0111,1.0145,1.0195,1.02,1.0209,1.0355,1.0311,1.0364,1.0457,1.0507,1.0525,1.0542,1.0597,1.0617,1.0375,1.0376,1.0376,0,1.0165,1.0219,1.0173,1.0221,1.0234,1.0164,1.0227,1.023,1.0239,1.0249,1.0207,1.0271,1.0267,1.0348,1.0384,1.0392,1.041,1.0366,1.0526,1.0542,1.0556,1.0609,1.0629,1.0383,1.0382,1.0381,1.038,0,1.0323,1.0362,1.0411,1.0422,1.0439,1.0494,1.0459,1.0482,1.045,1.0432,1.0496,1.0488,1.0512,1.0529,1.0497,1.0606,1.0583,1.0535,1.0461,1.0586,1.0635,1.0654,1.0392,1.039,1.0388,1.0386,0,0,1.0532,1.0517,1.0537,1.0542,1.0537,1.0567,1.062,1.0643,1.0666,1.0674,1.0719,1.0764,1.0719,1.073,1.0698,1.0742,1.0863,1.0688,1.0688,1.0724,1.0986,1.1025,1.1048,1.0832,1.0836,1.0839,1.0987,0,1.0672,1.0761,1.0722,1.0816,1.0853,1.0788,1.0834,1.0838,1.0823,1.0853,1.0836,1.0871,1.0808,1.0814,1.0854,1.084,1.0915,1.0828,1.0876,1.0878,1.088,1.1073,1.1114,1.1254,1.1005,1.1008,1.101,0,1.0847,1.0864,1.0962,1.0953,1.0967,1.1009,1.1029,1.1058,1.1061,1.1047,1.106,1.1019,1.1072,1.0998,1.1072,1.1013,1.1031,1.1027,1.1031,1.1036,1.0954,1.1086,1.1297,1.1319,1.1039,1.1037,1.1035,0,1.0993,1.104,1.1105,1.1111,1.1102,1.1134,1.1132,1.1131,1.1148,1.1165,1.1177,1.12,1.1213,1.1233,1.1201,1.1149,1.1281,1.1202,1.1273,1.1274,1.1306,1.1305,1.1525,1.1312,1.1312,1.1311,1.1311,0,1.1156,1.1219,1.1171,1.1212,1.1281,1.1236,1.1307,1.1297,1.1298,1.1337,1.1281,1.1319,1.1272,1.1306,1.1281,1.1348,1.1354,1.1346,1.1339,1.1353,1.1354,1.1365,1.1356,1.1317,1.1316,1.1315,1.1314,0,1.1331,1.1302,1.1369,1.1355,1.1353,1.1406,1.1394,1.1432,1.1413,1.1464,1.1473,1.1444,1.1482,1.1451,1.1486,1.147,1.156,1.1537,1.1559,1.1554,1.1628,1.1623,1.1866,1.1897,1.1661,1.1663,1.1665,0,1.1438,1.1485,1.1477,1.1499,1.1501,1.1536,1.1554,1.1512,1.1533,1.1542,1.158,1.1612,1.1636,1.1699,1.1682,1.171,1.169,1.1773,1.1694,1.1708,1.1696,1.1695,1.1701,1.1791,1.1793,1.1795,1.1797,0,1.1632,1.1616,1.1643,1.1666,1.1689,1.1705,1.1717,1.1739,1.1696,1.1723,1.1761,1.1779,1.1817,1.1851,1.1874,1.1872,1.183,1.1822,1.1841,1.1857,1.1869,1.1867,1.1606,1.1817,1.1815,1.1814,1.1813,1.1812,1.1779,1.1819,1.182,1.1853,1.1858,1.1871,1.1907,1.1893,1.1924,1.1951,1.1924,1.1971,1.1975,1.2001,1.2006,1.2042,1.2008,1.2034,1.2041,1.2049,1.2061,1.1861,1.2046,1.2045,1.2045,1.2044,1.2044,0,1.1973,1.197,1.2001,1.202,1.2048,1.2003,1.2014,1.2041,1.2082,1.2089,1.2114,1.2159,1.2192,1.2179,1.2209,1.2241,1.2222,1.2251,1.2249,1.2251,1.2088,1.2071,1.2265,1.2265,1.2265,1.2265,1.2265,1.2265,1.2077,1.2144,1.2128,1.2197,1.2194,1.2239,1.225,1.2263,1.2269,1.2321,1.2349,1.2339,1.2339,1.2369,1.2398,1.2393,1.2408,1.2445,1.2434,1.2283,1.2261,1.2241,1.2224,1.2448,1.2448,1.2593,1.2594,1.2595]},{"header":{"parameterUnit":"m.s-1","parameterCategory":1,"la1":30.2991,"la2":30.254,"lo1":-89.0895,"lo2":-89.0444,"dy":0.0017,"dx":0.0017,"nx":28,"ny":28,"refTime":"2024-08-10T09:00:00:Z","depth":0,"parameterNumber":3,"parameterNumberName":"V-component_of_WINDS"},"data":[0,0,0,0,0,0,0,0,0,0,0,0,0,0,0,0,0,0,0,0,0,0,0,0,0,0,0,0,0,0,0,0,0,0,0,0,0,0,0,0,0,0,0,0,0,0,0,0,0,0,0,0,0,0,0,0,0,0,-2.8128,-2.8129,0,-2.8204,-2.8205,-2.8205,-2.8244,-2.8244,-2.8244,-2.8244,-2.8316,-2.8317,-2.8319,0,0,0,0,0,0,0,0,0,0,0,0,0,-2.801,-2.8012,-2.8128,-2.8129,-2.813,-2.8204,-2.8205,-2.8206,-2.8244,-2.8244,-2.8244,-2.8244,-2.8315,-2.8317,-2.8319,0,0,0,0,0,0,0,0,0,0,0,0,0,-2.8071,-2.8012,-2.8127,-2.8158,-2.8161,-2.8203,-2.8205,-2.8206,-2.8244,-2.8244,-2.8244,-2.8244,-2.8314,-2.8317,-2.832,-2.8335,0,0,-2.8328,-2.8329,0,0,0,0,0,0,0,0,-2.8067,-2.8075,-2.8152,-2.8156,-2.816,-2.8215,-2.8189,-2.8249,-2.8244,-2.8213,-2.8244,-2.8244,-2.8282,-2.8287,-2.8301,-2.8339,-2.8342,-2.8328,-2.833,-2.8331,-2.8332,0,0,0,0,0,0,0,-2.8063,-2.8072,-2.8158,-2.8153,-2.8158,-2.8166,-2.8174,-2.8201,-2.8245,-2.8215,-2.8218,-2.8227,-2.8283,-2.8298,-2.8303,-2.8343,-2.8328,-2.8331,-2.8333,-2.8334,-2.8396,-2.8396,0,0,0,0,0,0,-2.8055,-2.8068,-2.8155,-2.816,-2.8113,-2.8168,-2.8178,-2.8197,-2.8245,-2.8253,-2.8227,-2.8229,-2.8293,-2.83,-2.8305,-2.8327,-2.8331,-2.8334,-2.8335,-2.8396,-2.8396,-2.8396,0,0,0,0,0,0,-2.8052,-2.8062,-2.8152,-2.8115,-2.8127,-2.817,-2.8191,-2.8198,-2.8213,-2.8254,-2.8262,-2.8234,-2.8294,-2.8302,-2.8328,-2.833,-2.8335,-2.8338,-2.8396,-2.8396,-2.8396,-2.837,0,0,0,0,0,0,-2.8048,-2.8061,-2.8069,-2.8115,-2.8129,-2.8175,-2.8191,-2.82,-2.8219,-2.8221,-2.8263,-2.827,-2.8294,-2.8324,-2.8331,-2.8334,-2.834,-2.8396,-2.8396,-2.8396,-2.837,-2.8369,-2.8367,0,0,0,0,0,-2.8044,-2.8057,-2.8069,-2.8079,-2.814,-2.8175,-2.8183,-2.8213,-2.8219,-2.8226,-2.8252,-2.8268,-2.8329,-2.8326,-2.8334,-2.8338,-2.8396,-2.8396,-2.8396,-2.8371,-2.8369,-2.8367,0,0,0,0,0,0,-2.8007,-2.8063,-2.8077,-2.8106,-2.8136,-2.8182,-2.8192,-2.8209,-2.8237,-2.8238,-2.8272,-2.8281,-2.8304,-2.8324,-2.832,-2.8355,-2.8364,-2.8366,-2.8342,-2.834,-2.8339,-2.8333,-2.8342,0,0,0,0,0,-2.8003,-2.8029,-2.8076,-2.8096,-2.8111,-2.8148,-2.8165,-2.8186,-2.8217,-2.8229,-2.8257,-2.8285,-2.8311,-2.8327,-2.8352,-2.8373,-2.8382,-2.838,-2.8378,-2.8377,-2.8378,-2.839,-2.839,-2.8396,-2.8396,-2.8396,0,0,-2.7993,-2.8027,-2.8041,-2.8089,-2.8115,-2.814,-2.8159,-2.8184,-2.8202,-2.8232,-2.826,-2.8281,-2.8314,-2.8339,-2.835,-2.8356,-2.8378,-2.8377,-2.8375,-2.8377,-2.839,-2.8389,-2.8389,-2.8396,-2.8396,-2.8396,0,0,-2.7988,-2.8017,-2.8037,-2.8063,-2.8102,-2.8128,-2.8132,-2.8176,-2.8192,-2.8221,-2.8244,-2.8265,-2.8308,-2.8331,-2.8348,-2.8352,-2.8367,-2.8359,-2.835,-2.8362,-2.8361,-2.8361,-2.8362,-2.8362,-2.8359,-2.8359,-2.8359,0,-2.797,-2.8011,-2.8045,-2.8069,-2.8089,-2.812,-2.814,-2.8162,-2.8207,-2.8219,-2.8225,-2.828,-2.8304,-2.8334,-2.8335,-2.8348,-2.8354,-2.8354,-2.8359,-2.8359,-2.8359,-2.836,-2.8361,-2.8358,-2.8358,-2.8358,-2.8359,0,-2.7987,-2.8014,-2.8025,-2.807,-2.8092,-2.8113,-2.8149,-2.8166,-2.8184,-2.8208,-2.8236,-2.8267,-2.8299,-2.8308,-2.8325,-2.834,-2.8342,-2.8353,-2.8362,-2.8357,-2.8358,-2.8359,-2.8356,-2.8357,-2.8357,-2.8357,0,0,-2.796,-2.8025,-2.8028,-2.8049,-2.8095,-2.8116,-2.8138,-2.8172,-2.8186,-2.8215,-2.8234,-2.827,-2.828,-2.83,-2.832,-2.833,-2.8331,-2.834,-2.8341,-2.8337,-2.8348,-2.834,-2.834,-2.8342,-2.8342,-2.8342,-2.8346,0,-2.7962,-2.8006,-2.8038,-2.8069,-2.8094,-2.8124,-2.8143,-2.8172,-2.8195,-2.8218,-2.8242,-2.8268,-2.828,-2.8292,-2.8303,-2.8329,-2.8334,-2.8329,-2.8358,-2.8359,-2.8349,-2.8341,-2.8333,-2.8334,-2.8347,-2.8347,-2.8347,0,-2.7969,-2.8001,-2.8035,-2.8079,-2.8091,-2.8108,-2.8141,-2.8163,-2.8196,-2.8212,-2.8234,-2.8255,-2.8278,-2.8286,-2.8317,-2.8313,-2.8327,-2.8341,-2.8341,-2.8345,-2.8352,-2.8344,-2.8336,-2.8336,-2.8348,-2.8348,-2.8348,0,-2.7946,-2.7997,-2.8024,-2.8041,-2.8093,-2.8104,-2.8125,-2.8159,-2.8177,-2.8206,-2.8218,-2.8247,-2.8263,-2.8285,-2.8313,-2.8316,-2.8341,-2.8351,-2.8354,-2.8353,-2.8358,-2.8357,-2.8351,-2.8367,-2.8367,-2.8367,-2.8367,0,-2.7945,-2.7964,-2.8015,-2.8032,-2.8054,-2.8089,-2.811,-2.8134,-2.8163,-2.8184,-2.821,-2.8228,-2.8264,-2.8286,-2.8308,-2.833,-2.8337,-2.8349,-2.8355,-2.8347,-2.8345,-2.8356,-2.8357,-2.8367,-2.8367,-2.8367,-2.8367,0,-2.7923,-2.7958,-2.7989,-2.8036,-2.8049,-2.8063,-2.8102,-2.8118,-2.8143,-2.8169,-2.8176,-2.8214,-2.8241,-2.8272,-2.8308,-2.8323,-2.8343,-2.8351,-2.8333,-2.8336,-2.8337,-2.8337,-2.8338,-2.8339,-2.8354,-2.8354,-2.8354,0,-2.7919,-2.7936,-2.7985,-2.8002,-2.8024,-2.805,-2.807,-2.8104,-2.8123,-2.8162,-2.8173,-2.8203,-2.8229,-2.827,-2.8299,-2.8327,-2.8336,-2.8334,-2.834,-2.8332,-2.8336,-2.8334,-2.8336,-2.8332,-2.8332,-2.8332,-2.8332,0,-2.7909,-2.7926,-2.7955,-2.7989,-2.8012,-2.8041,-2.8069,-2.8081,-2.8121,-2.814,-2.817,-2.819,-2.8228,-2.8257,-2.8289,-2.8308,-2.8326,-2.833,-2.8332,-2.8324,-2.8313,-2.8319,-2.8328,-2.8329,-2.833,-2.833,-2.833,-2.833,-2.7896,-2.7913,-2.795,-2.7981,-2.8007,-2.8034,-2.8052,-2.8079,-2.8105,-2.8141,-2.8159,-2.8188,-2.822,-2.8265,-2.8284,-2.8306,-2.8312,-2.8315,-2.8315,-2.8315,-2.8313,-2.831,-2.8312,-2.8312,-2.8312,-2.8312,-2.8312,0,-2.7888,-2.7914,-2.7942,-2.7983,-2.8007,-2.8024,-2.8057,-2.8075,-2.8101,-2.8131,-2.8156,-2.8189,-2.8217,-2.8249,-2.8279,-2.829,-2.8299,-2.8297,-2.8296,-2.83,-2.8307,-2.8302,-2.8289,-2.8289,-2.8289,-2.8289,-2.8289,-2.8289,-2.7886,-2.7914,-2.7935,-2.7976,-2.8001,-2.8032,-2.8049,-2.8074,-2.8097,-2.8134,-2.8159,-2.8181,-2.821,-2.8243,-2.8268,-2.8277,-2.8286,-2.8282,-2.8292,-2.8298,-2.83,-2.8301,-2.8297,-2.8283,-2.8283,-2.8284,-2.8284,-2.8284]}]]